Location: Unspecified
(0.0000°N, 0.0000°E)
Time: 09:15:45
(UTC+00:00)

Explorer 11/Cluster Stage 4 - Pass Details

Date: 14 July 2020
Orbit: 467 x 1259 km, 28.8° (Epoch: 03 August)

Event Time Altitude Azimuth Distance (km) Brightness Sun altitude
Rises 14:31:20 0° 335° (NNW) 3,775 10.6 48.5°
Reaches altitude 10° 14:37:39 10° 16° (NNE) 3,042 9.9 47.2°
Maximum altitude 14:38:31 10° 22° (NNE) 3,051 9.8 47.0°
Drops below altitude 10° 14:39:22 10° 29° (NNE) 3,088 9.8 46.8°
Sets 14:46:16 0° 68° (ENE) 4,176 10.0 45.4°
